TimePDT,TemperatureF,Dew PointF,Humidity,Sea Level PressureIn,VisibilityMPH,Wind Direction,Wind SpeedMPH,Gust SpeedMPH,PrecipitationIn,Events,Conditions,WindDirDegrees,DateUTC
12:53 AM,52.0,50.0,93,30.12,0.5,Calm,Calm,-,N/A,Fog,Fog,0,2012-09-20 07:53:00
1:53 AM,51.1,48.9,92,30.13,0.5,Calm,Calm,-,N/A,Fog,Fog,0,2012-09-20 08:53:00
2:53 AM,51.1,48.9,92,30.12,0.5,Calm,Calm,-,N/A,Fog,Fog,0,2012-09-20 09:53:00
3:35 AM,51.8,48.2,88,30.12,1.2,Calm,Calm,-,N/A,,Overcast,0,2012-09-20 10:35:00
3:53 AM,51.1,48.9,92,30.12,1.2,Calm,Calm,-,N/A,,Overcast,0,2012-09-20 10:53:00
4:00 AM,51.8,48.2,88,30.12,1.8,Calm,Calm,-,N/A,,Overcast,0,2012-09-20 11:00:00
4:27 AM,51.8,48.2,88,30.11,2.0,Calm,Calm,-,N/A,,Overcast,0,2012-09-20 11:27:00
4:53 AM,51.1,48.9,92,30.11,2.0,NE,3.5,-,N/A,,Overcast,40,2012-09-20 11:53:00
5:28 AM,51.8,48.2,88,30.10,2.5,Calm,Calm,-,N/A,,Overcast,0,2012-09-20 12:28:00
5:53 AM,50.0,48.9,96,30.10,1.8,Calm,Calm,-,N/A,,Overcast,0,2012-09-20 12:53:00
6:06 AM,50.0,48.2,94,30.10,2.5,Calm,Calm,-,N/A,,Overcast,0,2012-09-20 13:06:00
6:13 AM,50.0,48.2,94,30.10,1.2,Calm,Calm,-,N/A,,Overcast,0,2012-09-20 13:13:00
6:31 AM,50.0,48.2,94,30.10,1.8,Calm,Calm,-,N/A,,Overcast,0,2012-09-20 13:31:00
6:43 AM,50.0,48.2,94,30.10,1.0,Calm,Calm,-,N/A,,Overcast,0,2012-09-20 13:43:00
6:53 AM,50.0,48.9,96,30.10,0.8,Calm,Calm,-,N/A,,Overcast,0,2012-09-20 13:53:00
7:27 AM,50.0,48.2,94,30.10,0.2,NNW,3.5,-,N/A,Fog,Fog,330,2012-09-20 14:27:00
7:53 AM,50.0,48.9,96,30.10,0.5,Calm,Calm,-,N/A,Fog,Fog,0,2012-09-20 14:53:00
8:09 AM,50.0,48.2,94,30.10,1.0,Calm,Calm,-,N/A,,Overcast,0,2012-09-20 15:09:00
8:20 AM,50.0,48.2,94,30.10,0.8,Calm,Calm,-,N/A,,Overcast,0,2012-09-20 15:20:00
8:53 AM,51.1,48.9,92,30.10,0.8,Calm,Calm,-,N/A,,Overcast,0,2012-09-20 15:53:00
9:53 AM,51.1,48.9,92,30.10,1.0,Calm,Calm,-,N/A,,Overcast,0,2012-09-20 16:53:00
10:04 AM,51.8,48.2,88,30.10,2.0,Calm,Calm,-,N/A,,Overcast,0,2012-09-20 17:04:00
10:33 AM,51.8,50.0,94,30.10,4.0,Calm,Calm,-,N/A,,Overcast,0,2012-09-20 17:33:00
10:53 AM,52.0,50.0,93,30.11,2.5,Calm,Calm,-,N/A,,Overcast,0,2012-09-20 17:53:00
11:02 AM,51.8,50.0,94,30.11,3.0,Calm,Calm,-,N/A,,Overcast,0,2012-09-20 18:02:00
11:53 AM,53.1,50.0,89,30.11,5.0,Calm,Calm,-,N/A,,Overcast,0,2012-09-20 18:53:00
12:53 PM,53.1,50.0,89,30.12,5.0,West,5.8,-,N/A,,Overcast,260,2012-09-20 19:53:00
1:53 PM,54.0,50.0,86,30.11,6.0,WSW,3.5,-,N/A,,Overcast,250,2012-09-20 20:53:00
2:26 PM,53.6,50.0,88,30.11,6.0,SW,4.6,-,N/A,,Overcast,220,2012-09-20 21:26:00
2:53 PM,55.0,50.0,83,30.11,6.0,SSW,3.5,-,N/A,,Haze,210,2012-09-20 21:53:00
3:53 PM,55.0,50.0,83,30.11,6.0,West,5.8,-,N/A,,Haze,270,2012-09-20 22:53:00
4:53 PM,54.0,48.9,83,30.10,7.0,South,4.6,-,N/A,,Overcast,180,2012-09-20 23:53:00
5:53 PM,53.1,48.9,86,30.10,6.0,SW,4.6,-,N/A,,Overcast,230,2012-09-21 00:53:00
6:53 PM,53.1,48.9,86,30.10,4.0,Calm,Calm,-,N/A,,Overcast,0,2012-09-21 01:53:00
7:53 PM,53.1,50.0,89,30.10,3.0,Calm,Calm,-,N/A,,Overcast,0,2012-09-21 02:53:00
8:28 PM,53.6,50.0,88,30.11,2.5,Calm,Calm,-,N/A,,Overcast,0,2012-09-21 03:28:00
8:48 PM,51.8,50.0,94,30.11,2.0,Calm,Calm,-,N/A,,Overcast,0,2012-09-21 03:48:00
8:53 PM,52.0,50.0,93,30.11,2.0,Calm,Calm,-,N/A,,Overcast,0,2012-09-21 03:53:00
9:27 PM,51.8,50.0,94,30.11,1.8,East,3.5,-,N/A,,Overcast,90,2012-09-21 04:27:00
9:35 PM,51.8,50.0,94,30.12,2.0,Calm,Calm,-,N/A,,Overcast,0,2012-09-21 04:35:00
9:53 PM,53.1,51.1,93,30.12,3.0,Calm,Calm,-,N/A,,Overcast,0,2012-09-21 04:53:00
10:02 PM,53.6,51.8,94,30.12,2.5,Calm,Calm,-,N/A,,Overcast,0,2012-09-21 05:02:00
10:24 PM,51.8,51.8,100,30.12,3.0,Calm,Calm,-,N/A,,Overcast,0,2012-09-21 05:24:00
10:53 PM,53.1,50.0,89,30.13,4.0,Calm,Calm,-,N/A,,Overcast,0,2012-09-21 05:53:00
11:30 PM,53.6,51.8,94,30.12,5.0,Calm,Calm,-,N/A,,Overcast,0,2012-09-21 06:30:00
11:51 PM,53.6,51.8,94,30.12,5.0,Calm,Calm,-,N/A,,Overcast,0,2012-09-21 06:51:00
11:53 PM,53.1,51.1,93,30.12,5.0,ENE,3.5,-,N/A,,Overcast,60,2012-09-21 06:53:00